Las Vegas, NM

7:13 PM MDT on July 20, 2017 (GMT -0600)
Las Vegas Municipal

Weather History for KLVS - March, 2013

Change the Weather History Date:

Sunday, March 24, 2013

  Actual Average Record
Temperature  
Mean Temperature 24 °F -  
Max Temperature 46 °F 57 °F 75 °F (2012)
Min Temperature 3 °F 27 °F 3 °F (2013)
Degree Days  
Heating Degree Days 40    
Moisture  
Dew Point 0 °F    
Average Humidity 45    
Maximum Humidity 84    
Minimum Humidity 11    
Precipitation  
Precipitation 0.00 in - - ()
Sea Level Pressure  
Sea Level Pressure 30.05 in    
Wind  
Wind Speed 11 mph (North)    
Max Wind Speed 26 mph    
Max Gust Speed 37 mph    
Visibility 10 miles    
Events      
Averages and records for this station are not official NWS values.
T = Trace of Precipitation, MM = Missing Value Source: NWS Daily Summary

Daily Weather History Graph

Daily Weather History Graph

Search for Another Location

Airport or City:

Trip Planner

Search our weather history database for the weather conditions in past years. The results will help you decide how hot, cold, wet, or windy it might be!

Date:

Astronomy

Mar. 24, 2013 Rise Set
Actual Time 6:58 AM MDT 7:15 PM MDT
Civil Twilight 6:32 AM MDT 7:41 PM MDT
Nautical Twilight 6:02 AM MDT 8:11 PM MDT
Astronomical Twilight 5:32 AM MDT 8:41 PM MDT
Moon 4:50 PM MDT (3/24) 5:04 AM MDT (3/24)
Length of Visible Light 13h 08m
Length of Day
12h 17m
Waxing Gibbous, 92% of the Moon is Illuminated
Mar 24
Waxing Gibbous
Mar 27
Full
Apr 2
Last Quarter
Apr 10
New
Apr 18
First Quarter

Hourly Weather History & Observations

Time (MDT) Temp. Windchill Dew Point Humidity Pressure Visibility Wind Dir Wind Speed Gust Speed Precip Events Conditions
12:53 AM 10.0 °F -3.7 °F 1.0 °F 67% 30.08 in 10.0 mi NNE 10.4 mph - N/A   Clear
1:53 AM 9.0 °F -2.2 °F 1.0 °F 70% 30.09 in - North 6.9 mph - N/A   Clear
2:53 AM 8.1 °F -3.2 °F 1.0 °F 73% 30.09 in 10.0 mi NNE 6.9 mph - N/A   Clear
3:53 AM 7.0 °F -1.7 °F 1.0 °F 77% 30.10 in - North 4.6 mph - N/A   Clear
4:53 AM 8.1 °F -2.0 °F 1.9 °F 76% 30.08 in - NNE 5.8 mph - N/A   Clear
5:53 AM 3.0 °F -4.4 °F -0.9 °F 84% 30.14 in - ESE 3.5 mph - N/A   Clear
6:53 AM 3.9 °F -8.2 °F -0.9 °F 80% 30.18 in - South 6.9 mph - N/A   Clear
7:53 AM 10.9 °F -1.8 °F 3.9 °F 73% 30.19 in - SSW 9.2 mph - N/A   Clear
8:53 AM 17.1 °F 2.5 °F 3.9 °F 56% 30.17 in - South 15.0 mph - N/A   Clear
9:53 AM 21.9 °F 11.0 °F 3.0 °F 44% 30.14 in - SSW 10.4 mph - N/A   Clear
10:53 AM 28.0 °F 16.5 °F 1.0 °F 31% 30.10 in - South 15.0 mph - N/A   Clear
11:53 AM 32.0 °F 21.2 °F 1.0 °F 27% 30.06 in - SSE 16.1 mph 23.0 mph N/A   Clear
12:53 PM 36.0 °F 26.0 °F -0.0 °F 22% 30.01 in - SSE 17.3 mph 27.6 mph N/A   Clear
1:53 PM 39.9 °F 31.8 °F -2.0 °F 17% 29.93 in - SSE 15.0 mph 27.6 mph N/A   Clear
2:53 PM 42.1 °F 36.6 °F -5.1 °F 14% 29.89 in - SSW 9.2 mph 21.9 mph N/A   Clear
3:18 PM 44.6 °F 35.3 °F -7.6 °F 11% 29.85 in - NW 26.5 mph 36.8 mph N/A   Clear
3:53 PM 46.0 °F 39.6 °F -6.0 °F 11% 29.86 in - NNW 15.0 mph 23.0 mph N/A   Clear
4:53 PM 45.0 °F 39.7 °F -7.1 °F 11% 29.86 in - West 10.4 mph 25.3 mph N/A   Clear
5:53 PM 43.0 °F 33.1 °F -7.1 °F 12% 29.88 in - NW 26.5 mph 32.2 mph N/A   Clear
6:53 PM 39.9 °F 32.5 °F -5.1 °F 15% 29.93 in - WNW 12.7 mph - N/A   Clear
7:53 PM 34.0 °F 25.5 °F -5.1 °F 19% 29.99 in - NW 11.5 mph - N/A   Clear
8:53 PM 27.0 °F 11.6 °F -2.0 °F 29% 30.08 in - NE 26.5 mph 34.5 mph N/A   Clear
9:53 PM 19.9 °F 3.9 °F 10.0 °F 65% 30.15 in - NNE 20.7 mph 25.3 mph N/A   Clear
10:53 PM 18.0 °F 4.2 °F 8.1 °F 65% 30.17 in - NE 13.8 mph - N/A   Clear
11:53 PM 14.0 °F 5.1 °F 7.0 °F 74% 30.20 in - NNE 5.8 mph - N/A   Clear